Content
SEND FEEDBACK

Daily
Averages
Monthly
Summary
United States of America

KEOKEA, HAWAII


Home > North America > United States > Hawaii
Elevation: 3000 feet     Latitude: 20 42N     Longitude: 156 22W

WEATHER
 
SELECT A DAY
Number of Records: 217,066;   Date Range: 1/1/95 - 7/20/14
 
SHARE

PRINT THIS DATA

[ ← Previous Day ]
WEATHER ALMANAC - JANUARY 3, 2013
[ Next Day → ]
[ °C ]   °F
Weather ElementAverageHighLow
Temperature71.3 °F79 °F (10:54 am)68 °F (1:54 am)
Dewpoint66.7 °F69.1 °F (9:54 am)64.9 °F (1:54 am)
Humidity85.9 %94 % (7:46 pm)62 % (10:54 am)
Barometer30.06 in30.12 in (8:54 pm)30.00 in (3:54 am)
Wind Speed15.9 mph25.3 mph (12:54 pm)
Wind Gust33.4 mph (7:46 pm)
Weather ElementAverage
Visibility8.3 mi
Wind DirectionNE (48.5 °)

Weather ElementTotal
Precipitation0.37 in
Cooling Degree Days8.5 (Base 65)
Growing Degree Days23.5 (Base 50)
Averaged from 27 records on January 3, 2013
WEATHER CONDITIONS BREAKOUT
WIND DIRECTION BREAKOUT
WEATHER BY HOUR - JANUARY 3, 2013
[ °C ]   °F
Local TimeTemperatureDewpointHumidityBarometerVisibilityWind DirectionWind SpeedGust SpeedPrecipitationEventsConditions
1:54 AM68.0 °F64.9 °F90 %30.02 in10.0 miNE (40°)11.5 mphScattered Clouds
2:54 AM68.0 °F64.9 °F90 %30.01 in10.0 miNE (50°)4.6 mphMostly Cloudy
3:54 AM70.0 °F66.9 °F90 %30.00 in10.0 miENE (70°)9.2 mphScattered Clouds
4:54 AM69.1 °F66.0 °F90 %30.01 in10.0 miNE (50°)13.8 mph21.9 mph0.00 inScattered Clouds
5:54 AM70.0 °F66.0 °F87 %30.01 in10.0 miNE (40°)10.4 mphScattered Clouds
6:54 AM69.1 °F64.9 °F87 %30.03 in10.0 miNE (40°)10.4 mphScattered Clouds
7:54 AM72.0 °F66.9 °F84 %30.04 in10.0 miNE (50°)17.3 mphPartly Cloudy
8:54 AM72.0 °F68.0 °F87 %30.06 in9.0 miNE (40°)18.4 mph21.9 mph0.00 inRainLight Rain
9:54 AM75.0 °F69.1 °F82 %30.07 in10.0 miNE (50°)11.5 mph0.00 inScattered Clouds
10:54 AM79.0 °F64.9 °F62 %30.05 in10.0 miNE (40°)13.8 mph20.7 mphScattered Clouds
11:54 AM78.1 °F66.9 °F68 %30.04 in10.0 miNE (50°)18.4 mph29.9 mphScattered Clouds
12:54 PM78.1 °F69.1 °F74 %30.02 in10.0 miNE (40°)25.3 mph31.1 mphMostly Cloudy
1:54 PM75.9 °F66.9 °F74 %30.01 in10.0 miNE (40°)19.6 mph25.3 mph0.00 inScattered Clouds
2:54 PM73.9 °F68.0 °F82 %30.01 in10.0 miNE (50°)17.3 mph27.6 mph0.00 inScattered Clouds
3:54 PM73.0 °F68.0 °F84 %30.02 in7.0 miNE (50°)20.7 mph28.8 mph0.00 inScattered Clouds
4:54 PM71.1 °F66.9 °F87 %30.04 in10.0 miNE (40°)23.0 mph29.9 mph0.00 inScattered Clouds
5:54 PM71.1 °F66.9 °F87 %30.05 in10.0 miENE (60°)13.8 mph21.9 mph0.00 inMostly Cloudy
6:54 PM69.1 °F66.9 °F93 %30.07 in7.0 miNE (40°)12.7 mph0.00 inRainLight Rain
7:46 PM69.8 °F68.0 °F94 %30.08 in8.0 miNE (50°)21.9 mph33.4 mph0.06 inRainLight Rain
7:54 PM69.1 °F66.0 °F90 %30.10 in8.0 miNE (50°)23.0 mph31.1 mph0.06 inRainLight Rain
8:50 PM69.8 °F66.2 °F88 %30.10 in5.0 miNE (50°)17.3 mph25.3 mph0.02 inRainLight Rain
8:54 PM69.1 °F66.9 °F93 %30.12 in4.0 miNE (50°)16.1 mph26.5 mph0.03 inRainHeavy Rain
9:01 PM69.8 °F66.2 °F88 %30.10 in4.0 miNE (50°)13.8 mph24.2 mph0.03 inRainRain
9:54 PM69.1 °F66.0 °F90 %30.12 in5.0 miNE (40°)21.9 mph31.1 mph0.07 inRainLight Rain
10:16 PM68.0 °F66.2 °F94 %30.10 in5.0 miENE (60°)15.0 mph25.3 mph0.03 inRainLight Rain
10:54 PM69.1 °F66.9 °F93 %30.11 in8.0 miENE (60°)11.5 mph0.03 inRainLight Rain
11:54 PM69.1 °F66.0 °F90 %30.11 in5.0 miENE (60°)18.4 mph25.3 mph0.04 inRainRain
Hourly data recorded from PHOG, located miles away from Keokea, Hawaii







STORIES FROM OUR PARTNERS